Farmington, NM

3:19 PM MST on February 19, 2018 (GMT -0700)
Four Corners Regional

Weather History for KFMN - July, 2013

Change the Weather History Date:

Sunday, July 21, 2013

  Actual Average Record
Temperature  
Mean Temperature 78 °F -  
Max Temperature 93 °F 90 °F 105 °F (2005)
Min Temperature 63 °F 60 °F 55 °F (2015)
Cooling Degree Days 13    
Growing Degree Days 28 (Base 50)    
Moisture  
Dew Point 48 °F    
Average Humidity 35    
Maximum Humidity 59    
Minimum Humidity 10    
Precipitation  
Precipitation 0.00 in - - ()
Sea Level Pressure  
Sea Level Pressure 29.87 in    
Wind  
Wind Speed 7 mph (ESE)    
Max Wind Speed 28 mph    
Max Gust Speed 39 mph    
Visibility 10 miles    
Events      
Averages and records for this station are not official NWS values.
T = Trace of Precipitation, MM = Missing Value Source: NWS Daily Summary

Daily Weather History Graph

Daily Weather History Graph

Search for Another Location

Airport or City:

Trip Planner

Search our weather history database for the weather conditions in past years. The results will help you decide how hot, cold, wet, or windy it might be!

Date:

Astronomy

Jul. 21, 2013 Rise Set
Actual Time 6:10 AM MDT 8:27 PM MDT
Civil Twilight 5:40 AM MDT 8:57 PM MDT
Nautical Twilight 5:04 AM MDT 9:33 PM MDT
Astronomical Twilight 4:25 AM MDT 10:12 PM MDT
Moon 7:30 PM MDT (7/21) 4:59 AM MDT (7/21)
Length of Visible Light 15h 16m
Length of Day
14h 17m
Waxing Gibbous, 98% of the Moon is Illuminated
Jul 21
Waxing Gibbous
Jul 22
Full
Jul 29
Last Quarter
Aug 6
New
Aug 14
First Quarter

Hourly Weather History & Observations

Time (MDT) Temp. Dew Point Humidity Pressure Visibility Wind Dir Wind Speed Gust Speed Precip Events Conditions
12:53 AM 73.0 °F 48.9 °F 42% 29.88 in 10.0 mi SE 5.8 mph - N/A   Clear
1:53 AM 70.0 °F 48.9 °F 47% 29.88 in 10.0 mi Calm Calm - N/A   Clear
2:53 AM 66.0 °F 48.9 °F 54% 29.86 in 10.0 mi NNE 6.9 mph - N/A   Clear
3:53 AM 66.9 °F 50.0 °F 54% 29.85 in 10.0 mi ENE 6.9 mph - N/A   Clear
4:53 AM 66.9 °F 52.0 °F 59% 29.84 in 10.0 mi East 9.2 mph - N/A   Clear
5:53 AM 66.9 °F 51.1 °F 57% 29.85 in 10.0 mi East 8.1 mph - N/A   Clear
6:53 AM 66.9 °F 51.1 °F 57% 29.89 in 10.0 mi East 6.9 mph - N/A   Clear
7:53 AM 70.0 °F 50.0 °F 49% 29.90 in 10.0 mi East 6.9 mph - N/A   Partly Cloudy
8:53 AM 71.1 °F 54.0 °F 55% 29.91 in 10.0 mi ESE 6.9 mph - N/A   Clear
9:53 AM 75.9 °F 52.0 °F 43% 29.91 in 10.0 mi SE 9.2 mph - N/A   Clear
10:53 AM 79.0 °F 52.0 °F 39% 29.90 in 10.0 mi South 4.6 mph - N/A   Clear
11:53 AM 84.0 °F 48.9 °F 29% 29.87 in 10.0 mi Variable 5.8 mph - N/A   Clear
12:53 PM 86.0 °F 48.9 °F 28% 29.86 in 10.0 mi South 9.2 mph - N/A   Clear
1:53 PM 88.0 °F 46.9 °F 24% 29.82 in 10.0 mi Variable 3.5 mph - N/A   Clear
2:53 PM 91.0 °F 46.9 °F 22% 29.81 in 10.0 mi Variable 4.6 mph - N/A   Clear
3:53 PM 93.9 °F 45.0 °F 18% 29.79 in 10.0 mi WSW 11.5 mph - N/A   Clear
4:23 PM 87.8 °F 42.8 °F 21% 30.01 in 10.0 mi North 27.6 mph 39.1 mph N/A   Scattered Clouds
4:53 PM 87.1 °F 43.0 °F 21% 29.80 in 10.0 mi North 25.3 mph 33.4 mph N/A   Clear
5:53 PM 89.1 °F 39.9 °F 18% 29.81 in 10.0 mi NE 11.5 mph - N/A   Clear
6:23 PM 82.4 °F 44.6 °F 26% 30.04 in 10.0 mi East 15.0 mph - N/A   Scattered Clouds
6:53 PM 84.0 °F 45.0 °F 25% 29.85 in 10.0 mi East 9.2 mph - N/A   Clear
7:53 PM 81.0 °F 46.0 °F 29% 29.85 in 10.0 mi ESE 15.0 mph - N/A   Clear
8:53 PM 78.1 °F 48.0 °F 35% 29.88 in 10.0 mi SE 4.6 mph - N/A   Clear
9:53 PM 77.0 °F 48.0 °F 36% 29.90 in 10.0 mi South 3.5 mph - N/A   Clear
10:53 PM 75.9 °F 48.0 °F 37% 29.92 in 10.0 mi SSE 9.2 mph - N/A   Clear
11:53 PM 73.0 °F 51.1 °F 46% 29.92 in 10.0 mi Variable 3.5 mph - N/A   Clear